This demonstration page uses our WeatherBlox Daily Observations layout. Learn more.

Left ArrowRight Arrow

39.51506, -84.39828

Hourly Observations for September 5, 2016

Temp ( °F °C ) Dew Point ( °F °C ) Humidity (%) Winds ( mph kmh ) Pressure ( in mb ) Visibility ( mi km ) Precip ( " mm )
12:15 am 00:15 Clear 62 16.6 56 13.5 82 82 N N/A 30.21 1023 10 16 N/A
12:35 am 00:35 Clear 62 16.5 56 13.5 83 83 N N/A 30.21 1023 7 11 N/A
12:55 am 00:55 Hazy 61 16 56 13.1 83 83 N N/A 30.21 1023 5 8 N/A
1:15 am 01:15 Clear 61 16 56 13.1 83 83 N N/A 30.21 1023 10 16 N/A
1:35 am 01:35 Clear 61 16 55 13 83 83 N N/A 30.21 1023 10 16 N/A
1:55 am 01:55 Clear 61 15.9 55 13 83 83 N N/A 30.21 1023 7 11 N/A
2:15 am 02:15 Clear 60 15.4 55 12.7 84 84 N N/A 30.21 1023 10 16 N/A
2:35 am 02:35 Clear 60 15.3 55 12.7 85 85 N N/A 30.21 1023 10 16 N/A
2:55 am 02:55 Hazy 60 15.3 55 12.6 84 84 N N/A 30.21 1023 5 8 N/A
3:15 am 03:15 Clear 60 15.3 55 12.7 85 85 N N/A 30.21 1023 7 11 N/A
3:35 am 03:35 Clear 60 15.3 55 12.6 84 84 N N/A 30.21 1023 7 11 N/A
3:55 am 03:55 Clear 60 15.3 55 12.7 85 85 N N/A 30.21 1023 10 16 N/A
4:15 am 04:15 Clear 60 15.3 55 12.7 85 85 N N/A 30.21 1023 10 16 N/A
4:35 am 04:35 Clear 60 15.3 55 12.6 84 84 N N/A 30.21 1023 10 16 N/A
4:55 am 04:55 Clear 60 15.3 55 12.5 84 84 N N/A 30.24 1024 10 16 N/A
5:15 am 05:15 Clear 60 15.3 55 12.5 84 84 N N/A 30.24 1024 10 16 N/A
5:35 am 05:35 Clear 60 15.3 55 12.5 84 84 N N/A 30.24 1024 10 16 N/A
5:55 am 05:55 Clear 60 15.3 55 12.5 84 84 N N/A 30.24 1024 10 16 N/A
6:15 am 06:15 Clear 60 15.3 55 12.6 84 84 N N/A 30.24 1024 10 16 N/A
6:35 am 06:35 Clear 60 15.3 55 12.6 84 84 N N/A 30.24 1024 10 16 N/A
6:55 am 06:55 Clear 60 15.3 55 12.6 84 84 N N/A 30.24 1024 10 16 N/A
7:15 am 07:15 Sunny 60 15.3 55 12.7 85 85 N N/A 30.24 1024 10 16 N/A
7:35 am 07:35 Sunny 60 15.3 55 12.7 85 85 N N/A 30.24 1024 10 16 N/A
7:55 am 07:55 Sunny 60 15.3 55 12.7 85 85 N N/A 30.24 1024 10 16 N/A
8:15 am 08:15 Sunny 61 16.1 56 13.4 84 84 N N/A 30.24 1024 10 16 N/A
8:35 am 08:35 Sunny 63 17.2 57 14.1 82 82 N N/A 30.27 1025 10 16 N/A
8:55 am 08:55 Sunny 67 19.2 60 15.4 79 79 N N/A 30.24 1024 10 16 N/A
9:15 am 09:15 Sunny 69 20.8 62 16.4 76 76 N N/A 30.24 1024 10 16 N/A
9:35 am 09:35 Sunny 69 20.8 60 15.8 73 73 N N/A 30.24 1024 10 16 N/A
9:55 am 09:55 Sunny 72 22.4 62 16.6 70 70 N N/A 30.21 1023 10 16 N/A
10:15 am 10:15 Sunny 74 23.6 61 16.2 63 63 N N/A 30.21 1023 10 16 N/A
10:35 am 10:35 Sunny 77 25.1 61 16.2 58 58 N N/A 30.21 1023 10 16 N/A
10:55 am 10:55 Sunny 77 25.1 59 15.2 54 54 N N/A 30.21 1023 10 16 N/A
11:15 am 11:15 Sunny 80 26.5 60 15.7 52 52 SSW 3 6 30.21 1023 10 16 N/A
11:35 am 11:35 Sunny 80 26.7 59 14.9 48 48 SW 3 6 30.21 1023 10 16 N/A
11:55 am 11:55 Sunny 82 27.8 59 14.9 45 45 WSW 5 7 30.21 1023 10 16 N/A
12:15 pm 12:15 Sunny 83 28.4 57 14.1 42 42 SW 5 7 30.21 1023 10 16 N/A
12:35 pm 12:35 Sunny 87 30.7 58 14.6 38 38 S 6 9 30.18 1022 10 16 N/A
12:55 pm 12:55 Sunny N/A N/A N/A SSE 7 11 N/A 10 16 N/A
1:35 pm 13:35 Sunny N/A N/A N/A SSE 8 13 N/A 10 16 N/A
1:55 pm 13:55 Sunny N/A N/A N/A SW 3 6 N/A 10 16 N/A
2:15 pm 14:15 Sunny N/A N/A N/A WSW 8 13 N/A 10 16 N/A
2:35 pm 14:35 Sunny N/A N/A N/A S 6 9 N/A 10 16 N/A
2:55 pm 14:55 Sunny N/A N/A N/A N N/A N/A 10 16 N/A
3:15 pm 15:15 Partly Cloudy N/A N/A N/A SW 5 7 N/A 10 16 N/A
3:35 pm 15:35 Partly Cloudy N/A N/A N/A W 3 6 N/A 10 16 N/A
3:55 pm 15:55 Partly Cloudy N/A N/A N/A SW 5 7 N/A 10 16 N/A
4:15 pm 16:15 Partly Cloudy N/A N/A N/A SW 5 7 N/A 10 16 N/A
4:35 pm 16:35 Sunny N/A N/A N/A WSW 8 13 N/A 10 16 N/A
4:55 pm 16:55 Sunny N/A N/A N/A WSW 6 9 N/A 10 16 N/A
5:15 pm 17:15 Sunny N/A N/A N/A SSW 6 9 N/A 10 16 N/A
5:35 pm 17:35 Sunny N/A N/A N/A SW 8 13 N/A 10 16 N/A
5:55 pm 17:55 Sunny N/A N/A N/A SSW 8 13 N/A 10 16 N/A
6:15 pm 18:15 Sunny N/A N/A N/A SSW 5 7 N/A 10 16 N/A
6:35 pm 18:35 Sunny N/A N/A N/A SW 5 7 N/A 10 16 N/A
6:55 pm 18:55 Sunny N/A N/A N/A WSW 3 6 N/A 10 16 N/A
7:15 pm 19:15 Sunny N/A N/A N/A N N/A N/A 10 16 N/A
7:35 pm 19:35 Sunny N/A N/A N/A N N/A N/A 10 16 N/A
7:55 pm 19:55 Sunny N/A N/A N/A N N/A N/A 10 16 N/A
8:15 pm 20:15 Clear N/A N/A N/A N N/A N/A 10 16 N/A
8:35 pm 20:35 Clear N/A N/A N/A N 3 6 N/A 10 16 N/A
8:55 pm 20:55 Clear N/A N/A N/A N N/A N/A 10 16 N/A
9:15 pm 21:15 Clear N/A N/A N/A N N/A N/A 10 16 N/A
9:35 pm 21:35 Clear N/A N/A N/A N N/A N/A 10 16 N/A
9:55 pm 21:55 Clear N/A N/A N/A N N/A N/A 10 16 N/A
10:15 pm 22:15 Clear N/A N/A N/A N N/A N/A 10 16 N/A
10:35 pm 22:35 Partly Cloudy N/A N/A N/A N N/A N/A 10 16 N/A
10:55 pm 22:55 Clear N/A N/A N/A N N/A N/A 10 16 N/A
11:15 pm 23:15 Clear N/A N/A N/A N N/A N/A 10 16 N/A
11:35 pm 23:35 Partly Cloudy N/A N/A N/A N N/A N/A 10 16 N/A
11:55 pm 23:55 Clear N/A N/A N/A N N/A N/A 10 16 N/A

Powered by AerisWeather